Time,TemperatureF,DewpointF,PressureIn,WindDirection,WindDirectionDegrees,WindSpeedMPH,WindSpeedGustMPH,Humidity,HourlyPrecipIn,Conditions,Clouds,dailyrainin,SoftwareType,DateUTC
2013-04-19 01:00:00,45.0,-99.9,-100.00,North,-999,-999.0,-999.0,-999,0.02,,,0.15,,2013-04-19 08:00:00,
2013-04-19 01:33:00,45.0,-99.9,-100.00,North,-999,-999.0,-999.0,-999,0.02,,,0.15,,2013-04-19 08:33:00,
2013-04-19 01:42:00,45.0,-99.9,-100.00,North,-999,-999.0,-999.0,-999,0.02,,,0.15,,2013-04-19 08:42:00,
2013-04-19 01:52:00,45.0,-99.9,-100.00,North,-999,-999.0,-999.0,-999,0.02,,,0.15,,2013-04-19 08:52:00,
2013-04-19 02:00:00,45.0,-99.9,-100.00,North,-999,-999.0,-999.0,-999,0.04,,,0.19,,2013-04-19 09:00:00,
2013-04-19 02:33:00,45.0,-99.9,-100.00,North,-999,-999.0,-999.0,-999,0.04,,,0.19,,2013-04-19 09:33:00,
2013-04-19 02:43:00,45.0,-99.9,-100.00,North,-999,-999.0,-999.0,-999,0.04,,,0.19,,2013-04-19 09:43:00,
2013-04-19 02:52:00,45.0,-99.9,-100.00,North,-999,-999.0,-999.0,-999,0.04,,,0.19,,2013-04-19 09:52:00,
2013-04-19 03:00:00,45.0,-99.9,-100.00,North,-999,-999.0,-999.0,-999,0.07,,,0.26,,2013-04-19 10:00:00,
2013-04-19 03:33:00,45.0,-99.9,-100.00,North,-999,-999.0,-999.0,-999,0.07,,,0.26,,2013-04-19 10:33:00,
2013-04-19 03:42:00,45.0,-99.9,-100.00,North,-999,-999.0,-999.0,-999,0.07,,,0.26,,2013-04-19 10:42:00,
2013-04-19 03:53:00,45.0,-99.9,-100.00,North,-999,-999.0,-999.0,-999,0.07,,,0.26,,2013-04-19 10:53:00,
2013-04-19 05:00:00,45.0,-99.9,-100.00,North,-999,-999.0,-999.0,-999,0.10,,,0.46,,2013-04-19 12:00:00,
2013-04-19 05:33:00,45.0,-99.9,-100.00,North,-999,-999.0,-999.0,-999,0.10,,,0.46,,2013-04-19 12:33:00,
2013-04-19 05:43:00,45.0,-99.9,-100.00,North,-999,-999.0,-999.0,-999,0.10,,,0.46,,2013-04-19 12:43:00,
2013-04-19 05:53:00,45.0,-99.9,-100.00,North,-999,-999.0,-999.0,-999,0.10,,,0.46,,2013-04-19 12:53:00,
2013-04-19 06:00:00,45.0,-99.9,-100.00,North,-999,-999.0,-999.0,-999,0.09,,,0.55,,2013-04-19 13:00:00,
2013-04-19 06:32:00,45.0,-99.9,-100.00,North,-999,-999.0,-999.0,-999,0.09,,,0.55,,2013-04-19 13:32:00,
2013-04-19 06:42:00,45.0,-99.9,-100.00,North,-999,-999.0,-999.0,-999,0.09,,,0.55,,2013-04-19 13:42:00,
2013-04-19 06:52:00,45.0,-99.9,-100.00,North,-999,-999.0,-999.0,-999,0.09,,,0.55,,2013-04-19 13:52:00,
2013-04-19 07:00:00,45.0,-99.9,-100.00,North,-999,-999.0,-999.0,-999,0.10,,,0.65,,2013-04-19 14:00:00,
2013-04-19 07:32:00,45.0,-99.9,-100.00,North,-999,-999.0,-999.0,-999,0.10,,,0.65,,2013-04-19 14:32:00,
2013-04-19 07:43:00,45.0,-99.9,-100.00,North,-999,-999.0,-999.0,-999,0.10,,,0.65,,2013-04-19 14:43:00,
2013-04-19 07:52:00,45.0,-99.9,-100.00,North,-999,-999.0,-999.0,-999,0.10,,,0.65,,2013-04-19 14:52:00,
2013-04-19 08:00:00,45.0,-99.9,-100.00,North,-999,-999.0,-999.0,-999,0.10,,,0.75,,2013-04-19 15:00:00,
2013-04-19 08:33:00,45.0,-99.9,-100.00,North,-999,-999.0,-999.0,-999,0.10,,,0.75,,2013-04-19 15:33:00,
2013-04-19 08:43:00,45.0,-99.9,-100.00,North,-999,-999.0,-999.0,-999,0.10,,,0.75,,2013-04-19 15:43:00,
2013-04-19 08:53:00,45.0,-99.9,-100.00,North,-999,-999.0,-999.0,-999,0.10,,,0.75,,2013-04-19 15:53:00,
2013-04-19 09:00:00,46.0,-99.9,-100.00,North,-999,-999.0,-999.0,-999,0.10,,,0.85,,2013-04-19 16:00:00,
2013-04-19 09:33:00,46.0,-99.9,-100.00,North,-999,-999.0,-999.0,-999,0.10,,,0.85,,2013-04-19 16:33:00,
2013-04-19 09:43:00,46.0,-99.9,-100.00,North,-999,-999.0,-999.0,-999,0.10,,,0.85,,2013-04-19 16:43:00,
2013-04-19 09:53:00,46.0,-99.9,-100.00,North,-999,-999.0,-999.0,-999,0.10,,,0.85,,2013-04-19 16:53:00,
2013-04-19 10:00:00,45.0,-99.9,-100.00,North,-999,-999.0,-999.0,-999,0.07,,,0.92,,2013-04-19 17:00:00,
2013-04-19 10:33:00,45.0,-99.9,-100.00,North,-999,-999.0,-999.0,-999,0.07,,,0.92,,2013-04-19 17:33:00,
2013-04-19 10:43:00,45.0,-99.9,-100.00,North,-999,-999.0,-999.0,-999,0.07,,,0.92,,2013-04-19 17:43:00,
2013-04-19 10:52:00,45.0,-99.9,-100.00,North,-999,-999.0,-999.0,-999,0.07,,,0.92,,2013-04-19 17:52:00,
2013-04-19 11:00:00,48.0,-99.9,-100.00,North,-999,-999.0,-999.0,-999,0.01,,,0.93,,2013-04-19 18:00:00,
2013-04-19 11:34:00,48.0,-99.9,-100.00,North,-999,-999.0,-999.0,-999,0.01,,,0.93,,2013-04-19 18:34:00,
2013-04-19 11:43:00,48.0,-99.9,-100.00,North,-999,-999.0,-999.0,-999,0.01,,,0.93,,2013-04-19 18:43:00,
2013-04-19 11:52:00,48.0,-99.9,-100.00,North,-999,-999.0,-999.0,-999,0.01,,,0.93,,2013-04-19 18:52:00,
2013-04-19 12:00:00,52.0,-99.9,-100.00,North,-999,-999.0,-999.0,-999,0.01,,,0.94,,2013-04-19 19:00:00,
2013-04-19 12:32:00,52.0,-99.9,-100.00,North,-999,-999.0,-999.0,-999,0.01,,,0.94,,2013-04-19 19:32:00,
2013-04-19 12:42:00,52.0,-99.9,-100.00,North,-999,-999.0,-999.0,-999,0.01,,,0.94,,2013-04-19 19:42:00,
2013-04-19 12:52:00,52.0,-99.9,-100.00,North,-999,-999.0,-999.0,-999,0.01,,,0.94,,2013-04-19 19:52:00,
2013-04-19 13:00:00,52.0,-99.9,-100.00,North,-999,-999.0,-999.0,-999,0.02,,,0.96,,2013-04-19 20:00:00,
2013-04-19 13:32:00,52.0,-99.9,-100.00,North,-999,-999.0,-999.0,-999,0.02,,,0.96,,2013-04-19 20:32:00,
2013-04-19 13:42:00,52.0,-99.9,-100.00,North,-999,-999.0,-999.0,-999,0.02,,,0.96,,2013-04-19 20:42:00,
2013-04-19 13:52:00,52.0,-99.9,-100.00,North,-999,-999.0,-999.0,-999,0.02,,,0.96,,2013-04-19 20:52:00,
2013-04-19 16:00:00,52.0,-99.9,-100.00,North,-999,-999.0,-999.0,-999,0.01,,,-99.99,,2013-04-19 23:00:00,
2013-04-19 16:32:00,52.0,-99.9,-100.00,North,-999,-999.0,-999.0,-999,0.01,,,-99.99,,2013-04-19 23:32:00,
2013-04-19 16:42:00,52.0,-99.9,-100.00,North,-999,-999.0,-999.0,-999,0.01,,,-99.99,,2013-04-19 23:42:00,
2013-04-19 16:53:00,52.0,-99.9,-100.00,North,-999,-999.0,-999.0,-999,0.01,,,-99.99,,2013-04-19 23:53:00,
2013-04-19 18:00:00,51.0,-99.9,-100.00,North,-999,-999.0,-999.0,-999,0.02,,,1.05,,2013-04-20 01:00:00,
2013-04-19 18:32:00,51.0,-99.9,-100.00,North,-999,-999.0,-999.0,-999,0.02,,,1.05,,2013-04-20 01:32:00,
2013-04-19 18:42:00,51.0,-99.9,-100.00,North,-999,-999.0,-999.0,-999,0.02,,,1.05,,2013-04-20 01:42:00,
2013-04-19 18:52:00,51.0,-99.9,-100.00,North,-999,-999.0,-999.0,-999,0.02,,,1.05,,2013-04-20 01:52:00,
2013-04-19 19:00:00,50.0,-99.9,-100.00,North,-999,-999.0,-999.0,-999,0.00,,,1.05,,2013-04-20 02:00:00,
2013-04-19 19:32:00,50.0,-99.9,-100.00,North,-999,-999.0,-999.0,-999,0.00,,,1.05,,2013-04-20 02:32:00,
2013-04-19 19:42:00,50.0,-99.9,-100.00,North,-999,-999.0,-999.0,-999,0.00,,,1.05,,2013-04-20 02:42:00,
2013-04-19 19:52:00,50.0,-99.9,-100.00,North,-999,-999.0,-999.0,-999,0.00,,,1.05,,2013-04-20 02:52:00,
2013-04-19 20:00:00,48.0,-99.9,-100.00,North,-999,-999.0,-999.0,-999,0.00,,,1.03,,2013-04-20 03:00:00,
2013-04-19 20:33:00,48.0,-99.9,-100.00,North,-999,-999.0,-999.0,-999,0.00,,,1.03,,2013-04-20 03:33:00,
2013-04-19 20:43:00,48.0,-99.9,-100.00,North,-999,-999.0,-999.0,-999,0.00,,,1.03,,2013-04-20 03:43:00,
2013-04-19 20:53:00,48.0,-99.9,-100.00,North,-999,-999.0,-999.0,-999,0.00,,,1.03,,2013-04-20 03:53:00,
2013-04-19 21:00:00,48.0,-99.9,-100.00,North,-999,-999.0,-999.0,-999,0.00,,,0.99,,2013-04-20 04:00:00,
2013-04-19 21:33:00,48.0,-99.9,-100.00,North,-999,-999.0,-999.0,-999,0.00,,,0.99,,2013-04-20 04:33:00,
2013-04-19 21:43:00,48.0,-99.9,-100.00,North,-999,-999.0,-999.0,-999,0.00,,,0.99,,2013-04-20 04:43:00,
2013-04-19 21:53:00,48.0,-99.9,-100.00,North,-999,-999.0,-999.0,-999,0.00,,,0.99,,2013-04-20 04:53:00,
2013-04-19 22:00:00,47.0,-99.9,-100.00,North,-999,-999.0,-999.0,-999,0.00,,,0.98,,2013-04-20 05:00:00,
2013-04-19 22:32:00,47.0,-99.9,-100.00,North,-999,-999.0,-999.0,-999,0.00,,,0.98,,2013-04-20 05:32:00,
2013-04-19 22:43:00,47.0,-99.9,-100.00,North,-999,-999.0,-999.0,-999,0.00,,,0.98,,2013-04-20 05:43:00,
2013-04-19 22:52:00,47.0,-99.9,-100.00,North,-999,-999.0,-999.0,-999,0.00,,,0.98,,2013-04-20 05:52:00,
2013-04-19 23:00:00,47.0,-99.9,-100.00,North,-999,-999.0,-999.0,-999,0.00,,,0.95,,2013-04-20 06:00:00,
2013-04-19 23:32:00,47.0,-99.9,-100.00,North,-999,-999.0,-999.0,-999,0.00,,,0.95,,2013-04-20 06:32:00,
2013-04-19 23:42:00,47.0,-99.9,-100.00,North,-999,-999.0,-999.0,-999,0.00,,,0.95,,2013-04-20 06:42:00,
2013-04-19 23:52:00,47.0,-99.9,-100.00,North,-999,-999.0,-999.0,-999,0.00,,,0.95,,2013-04-20 06:52:00,